Terminal Aerodrome Forecast
Issued by NWS Miami, FL

Home | Current Version | Previous Version | Text Only | Print | Product List | Glossary On
Versions: 1 2 3 4 5 6 7 8 9 10 11 12 13 14 15 16 17 18 19 20 21 22 23 24 25 26 27 28 29 30 31 32 33 34 35 36 37 38 39 40 41 42
000
FTUS42 KMFL 122325
TAFAPF
TAF
KAPF 122325Z 1300/1324 31004KT P6SM SKC
     FM131000 31003KT 5SM MIFG FEW002
     FM131300 34008KT P6SM SCT025 BKN035
     FM131900 36013G19KT P6SM SKC=

USA.gov is the U.S. government's official web portal to all federal, state and local government web resources and services.